CW7595 Weather Reports


Display with metric or nautical units.
time (UTC)temp
F
wind
direction
speed
MPH
gust
MPH
rain 1hr
in
rain 24hr
in
rain mn
in
humidity
%
barometer
mb
20260904161518 66 348 0.0 6.0 0.00 0.33 0.02 81 1006.4
20260904160022 66 336 0.0 1.0 0.00 0.36 0.02 82 1006.4
20260904154515 66 339 0.0 4.0 0.00 0.36 0.02 83 1006.4
20260904153014 66 347 0.0 6.0 0.00 0.36 0.02 84 1006.5
20260904151510 65 304 0.0 2.0 0.00 0.36 0.02 85 1006.8
20260904150026 64 289 0.0 0.0 0.00 0.39 0.02 86 1006.8
20260904144507 64 294 0.0 3.0 0.00 0.39 0.02 87 1006.9
20260904143005 64 360 0.0 3.0 0.00 0.39 0.02 87 1007.0
20260904141504 64 334 0.0 0.0 0.00 0.39 0.02 87 1007.0
20260904140003 63 334 0.0 0.0 0.00 0.42 0.02 87 1006.9
20260904134500 63 38 0.0 0.0 0.00 0.42 0.02 88 1007.0
20260904133104 63 38 0.0 0.0 0.00 0.42 0.02 88 1007.0
20260904131559 62 116 0.0 0.0 0.00 0.42 0.02 88 1007.0
20260904130058 62 115 0.0 1.0 0.00 0.42 0.02 88 1006.9
20260904124609 62 115 0.0 0.0 0.00 0.49 0.02 88 1007.1
20260904123054 62 115 0.0 0.0 0.00 0.49 0.02 88 1007.1
20260904121554 61 115 0.0 0.0 0.00 0.49 0.02 87 1007.1
20260904120056 61 115 0.0 0.0 0.01 0.49 0.02 87 1007.2
20260904114552 61 115 0.0 0.0 0.01 0.51 0.02 88 1007.3
20260904113053 61 115 0.0 0.0 0.01 0.51 0.02 87 1007.3
20260904111552 60 115 0.0 0.0 0.01 0.51 0.02 87 1007.4
20260904110053 60 115 0.0 0.0 0.00 0.50 0.01 88 1007.2
20260904104551 60 115 0.0 0.0 0.00 0.55 0.01 87 1007.1
20260904103049 60 115 0.0 0.0 0.00 0.55 0.01 87 1007.0
20260904101550 60 115 0.0 0.0 0.00 0.55 0.01 87 1007.0
20260904100054 60 115 0.0 0.0 0.00 0.55 0.01 87 1006.9
20260904094547 60 115 0.0 0.0 0.00 0.55 0.01 87 1007.0
20260904093052 60 115 0.0 0.0 0.00 0.55 0.01 87 1007.0
20260904091545 60 115 0.0 0.0 0.00 0.55 0.01 87 1007.0
20260904090043 60 115 0.0 0.0 0.00 0.55 0.01 87 1007.0
20260904084543 60 115 0.0 0.0 0.00 0.55 0.01 87 1007.1
20260904083043 60 115 0.0 0.0 0.01 0.55 0.01 87 1007.2
20260904081541 60 115 0.0 0.0 0.01 0.55 0.01 87 1007.2
20260904080040 60 115 0.0 0.0 0.01 0.55 0.01 87 1007.2
20260904074544 61 115 0.0 0.0 0.01 0.55 0.01 87 1007.3
20260904073038 61 115 0.0 0.0 0.00 0.54 0.00 87 1007.3
20260904071537 61 115 0.0 0.0 0.00 0.54 0.00 87 1007.4
20260904070035 61 115 0.0 0.0 0.00 0.54 0.00 87 1007.6
20260904064534 61 115 0.0 1.0 0.00 0.54 0.00 87 1007.7
20260904063038 61 115 0.0 0.0 0.00 0.54 0.00 87 1007.9
20260904061531 61 109 0.0 0.0 0.00 0.54 0.00 87 1008.0
20260904060029 61 109 0.0 0.0 0.00 0.54 0.00 87 1008.1
20260904054528 61 109 0.0 0.0 0.00 0.54 0.00 87 1008.3
20260904053028 61 109 0.0 0.0 0.00 0.54 0.00 87 1008.3
20260904051550 61 109 0.0 0.0 0.00 0.54 0.00 87 1008.5
20260904050024 61 109 0.0 0.0 0.00 0.54 0.00 87 1008.5
20260904044525 61 109 0.0 0.0 0.00 0.54 0.00 87 1008.6
20260904043021 61 109 0.0 0.0 0.01 0.54 0.00 87 1008.9
20260904041521 61 109 0.0 0.0 0.02 0.54 0.00 87 1009.1
20260904040022 61 109 0.0 0.0 0.02 0.54 0.54 87 1009.1
20260904034516 61 109 0.0 0.0 0.02 0.54 0.54 87 1009.2
20260904033015 61 109 0.0 0.0 0.02 0.53 0.53 87 1009.3
20260904031513 61 109 0.0 0.0 0.02 0.52 0.52 87 1009.3
20260904030012 61 109 0.0 0.0 0.03 0.52 0.52 87 1009.4
20260904024512 61 109 0.0 0.0 0.03 0.52 0.52 87 1009.5
20260904023010 61 109 0.0 0.0 0.03 0.51 0.51 87 1009.6
20260904021508 61 109 0.0 0.0 0.03 0.50 0.50 87 1009.8
20260904020008 61 109 0.0 0.0 0.04 0.49 0.49 87 1010.0
20260904014507 61 109 0.0 0.0 0.06 0.49 0.49 86 1010.0
20260904013007 61 109 0.0 0.0 0.06 0.48 0.48 86 1010.1
20260904011506 61 109 0.0 0.0 0.06 0.47 0.47 86 1010.1
20260904010011 61 109 0.0 0.0 0.05 0.45 0.45 86 1010.1
20260904004504 61 109 0.0 0.0 0.04 0.43 0.43 87 1010.1
20260904003003 61 109 0.0 0.0 0.05 0.42 0.42 86 1010.3
20260904001503 61 109 0.0 0.0 0.06 0.41 0.41 86 1010.3
20260904000003 61 109 0.0 0.0 0.07 0.40 0.40 86 1010.2
20260903234502 61 109 0.0 1.0 0.07 0.39 0.39 86 1010.1
20260903233001 61 142 0.0 0.0 0.06 0.37 0.37 86 1010.1
20260903231502 61 78 0.0 0.0 0.05 0.35 0.35 86 1010.1
20260903230100 61 92 0.0 0.0 0.03 0.33 0.33 86 1010.1
20260903224559 61 111 0.0 1.0 0.02 0.32 0.32 86 1010.2
20260903223057 61 141 0.0 0.0 0.01 0.31 0.31 86 1010.5
20260903221557 62 105 0.0 2.0 0.00 0.30 0.30 86 1010.5
20260903220056 62 166 0.0 1.0 0.00 0.30 0.30 86 1010.5
20260903214555 62 71 0.0 1.0 0.00 0.30 0.30 86 1010.6
20260903213058 62 105 0.0 1.0 0.00 0.30 0.30 86 1010.6
20260903211556 62 99 0.0 3.0 0.00 0.30 0.30 86 1010.6
20260903210107 62 143 0.0 0.0 0.01 0.30 0.30 86 1010.7
20260903204610 62 65 0.0 0.0 0.01 0.30 0.30 86 1010.8
20260903203051 62 180 0.0 1.0 0.01 0.30 0.30 86 1010.9
20260903201548 62 110 0.0 1.0 0.01 0.30 0.30 86 1010.9
20260903200053 62 139 0.0 0.0 0.00 0.28 0.28 86 1011.0
20260903194546 62 96 0.0 0.0 0.00 0.28 0.28 86 1011.2
20260903193044 62 138 0.0 4.0 0.00 0.28 0.28 85 1011.3
20260903191543 62 89 0.0 1.0 0.01 0.28 0.28 86 1011.4
20260903190042 62 182 0.0 3.0 0.01 0.28 0.28 85 1011.4
20260903184544 62 181 0.0 1.0 0.01 0.28 0.28 85 1011.5
20260903183039 62 90 0.0 4.0 0.01 0.28 0.28 86 1011.6
20260903181538 62 186 0.0 8.0 0.02 0.28 0.28 85 1011.9
20260903180038 62 176 0.0 3.0 0.03 0.28 0.28 86 1012.0
20260903174535 62 182 0.0 2.0 0.03 0.28 0.28 85 1012.2
20260903173033 62 167 0.0 1.0 0.04 0.28 0.28 85 1012.2
20260903171532 62 155 0.0 4.0 0.02 0.26 0.26 85 1012.3
20260903170031 62 121 0.0 2.0 0.02 0.25 0.25 86 1012.5
20260903164528 61 192 0.0 3.0 0.03 0.25 0.25 86 1012.6
20260903163026 61 193 0.0 1.0 0.03 0.24 0.24 86 1012.8